Погода в Миконосе

Греция     37°27′13″N   25°22′30″E
темп.,
°C
ветер,
м/с
пор.,
м/с
влажн.,
%
обл.,
%
осадки,
мм/ч
давл.,
гПа
погр.,
м
8 мая, сб
сб800:00+19ю4578100 0.0 101254
03:00+19юв71179100 0.0 1009125
06:00+19вюв4683100 0.0 101073
09:00+19в5779100 0.0 101175
12:00+19вюв71278100 0.0 1011181
15:00+19всв24780 0.0 101058
18:00+20с89790 0.0 1011121
21:00+18ссз911880 0.0 1012254
9 мая, вс
вс900:00+18ссз1215880 0.0 1013267
03:00+18ссз1317860 0.0 1014375
06:00+18с1214841 0.0 1015479
09:00+17с1316810 0.0 1018578
12:00+18с1417735 0.0 1019564
15:00+18с1418694 0.0 1018623
18:00+18с1618695 0.0 1018509
21:00+18с1416725 0.0 1018546
10 мая, пн
пн1000:00+17с1416690 0.0 1018709
03:00+17с1417720 0.0 1017721
06:00+16с1517690 0.0 1017700
09:00+16с1617680 0.0 1017735
12:00+16с1618680 0.0 1018749
15:00+17ссз1617680 0.0 1017730
18:00+17ссз1618700 0.0 1016625
21:00+17ссз1617690 0.0 1016629
11 мая, вт
вт1100:00+16ссз1617754 0.0 1016556
03:00+16ссз17187494 0.0 1015631
06:00+16ссз1619735 0.0 1014649
09:00+16ссз1617720 0.0 1015672
12:00+16ссз1517730 0.0 1015687
15:00+17ссз1517730 0.0 1014728
18:00+17ссз1618740 0.0 1013621
21:00+17ссз1516730 0.0 1013577
12 мая, ср
ср1200:00+17ссз1416730 0.0 1012558
03:00+17ссз1416740 0.0 1011626
06:00+17ссз1315720 0.0 1011641
09:00+17ссз1213693 0.0 1011631
12:00+17ссз10117077 0.0 1012555
15:00+17ссз6768100 0.0 1011398
18:00+17сз1164100 0.0 1009142
21:00+18ююз467255 0.0 1009177